星链-6167 (STARLINK-6167 )

导读

STARLINK-6167是美国SpaceX公司星链(Starlink)卫星互联网星座中的一颗低轨卫星,于2023年6月23日发射入轨。星链项目旨在通过大量低轨道卫星组网,为全球提供高速低延迟互联网服务,尤其覆盖地面基础设施难以到达的偏远区域。作为星链星座扩容的一部分,该卫星助力完善全球覆盖能力,推动项目持续扩展,同时也引发了关于太空拥堵和天文观测影响的讨论。

Basic Information
目录编号:
57126
目录名称:
STARLINK-6167
国际标识:
2023-090AB
轨道中心:
EARTH
卫星名称:
星链-6167
卫星全名:
星链-6167 (STARLINK-6167 )
卫星状态:
在轨 (已飞行1170 天)
发射日期:
2023-06-23 UTC
国别 :
美国 (US)
星等 :
--
Orbit Information
数据来源 国际轨道数据
星历时间: 2026-09-05T14:44:25+0800
6小时前
查看轨道信息
半长轴: 6861.215km
偏心率: 0.0002012
轨道倾角: 43.004°
近地点辐角 278.611°
升交点赤经 347.725°
平近点角 81.451°
近地点: 481.697km
远地点: 484.459km
周期: 94.267分钟
每日圈数: 15.275705
Detailed Information
固有亮度:
5
最大亮度:
2.4
卫星平台:
Starlink v1.5
覆盖范围:
全球
运营商:
太空探索技术公司
运营商所在国:
美国
制造商(研发单位):
太空探索技术公司
制造商所在国:
美国
使用方式:
暂无
Satellite Introduction
星链(Starlink)计划是由太空探索技术公司(SpaceX)提出的一个巨型低轨卫星互联网星座项目,计划在2019年至2024年间在太空搭建由约1.2万颗卫星组成的“星链”网络,其中1584颗将部署在地球上空550千米处的近地轨道,并从2020年开始工作。该卫星仍在工作。
2D Orbit Map
3D Orbit Map
Orbit Altitude Analysis Chart
Orbit Inclination Analysis Chart
Orbit Comprehensive Analysis Chart
View Comprehensive Chart
Conjunction Data List
Event ID Objects TCA Miss Dist (km) Collision Risk Probability Collision Risk Index (CRI) Action
CDM_260907-042105-712606-761922
2026-09-07T
04:21:32+0000
0.682 km
远距离
7.049531E-5 中风险 0.72
CDM_260907-174105-712606-761921
2026-09-07T
17:41:50+0000
1.028 km
极远距离
1.85088E-5 中风险 0.6
CDM_260907-055505-712606-761921
2026-09-07T
05:55:42+0000
1.853 km
极远距离
2.701208E-6 低风险 0.44
CDM_260907-145305-695705-712621
2026-09-07T
14:53:08+0000
2.281 km
极远距离
1.896943E-6 低风险 0.41
CDM_260907-191505-712606-761921
2026-09-07T
19:15:59+0000
2.603 km
极远距离
1.289582E-6 低风险 0.37
CDM_260905-172805-712606-430821
2026-09-05T
17:28:11+0000
2.966 km
极远距离
1.139442E-6 低风险 0.36